Mount Pleasant, TN

2:06 AM CDT on August 29, 2016 (GMT -0500)
Maury County

Weather History for KMRC - April, 2014

Change the Weather History Date:

Tuesday, April 15, 2014

  Actual Average (KBNA) Record (KBNA)
Temperature  
Mean Temperature 40 °F 59 °F  
Max Temperature 48 °F 71 °F 87 °F (1936)
Min Temperature 33 °F 47 °F 28 °F (1950)
Degree Days  
Heating Degree Days 24    
Month to date heating degree days  
Since 1 July heating degree days  
Cooling Degree Days 0    
Month to date cooling degree days  
Year to date cooling degree days  
Moisture  
Dew Point 32 °F    
Average Humidity 74    
Maximum Humidity 100    
Minimum Humidity 46    
Precipitation  
Precipitation 0.00 in 0.12 in 3.28 in (1910)
Month to date precipitation 1.81  
Year to date precipitation 13.61  
Sea Level Pressure  
Sea Level Pressure 30.07 in    
Wind  
Wind Speed 9 mph (North)    
Max Wind Speed 15 mph    
Max Gust Speed -    
Visibility 9 miles    
Events      
T = Trace of Precipitation, MM = Missing Value Source: NWS Daily Summary

Daily Weather History Graph

Daily Weather History Graph

Search for Another Location

Airport or City:

Trip Planner

Search our weather history database for the weather conditions in past years. The results will help you decide how hot, cold, wet, or windy it might be!

Date:

Astronomy

Apr. 15, 2014 Rise Set
Actual Time 6:16 AM CDT 7:21 PM CDT
Civil Twilight 5:49 AM CDT 7:48 PM CDT
Nautical Twilight 5:18 AM CDT 8:19 PM CDT
Astronomical Twilight 4:46 AM CDT 8:51 PM CDT
Moon 8:01 PM CDT (4/15) 6:24 AM CDT (4/15)
Length of Visible Light 13h 58m
Length of Day
13h 05m
Full, 100% of the Moon is Illuminated
Apr 15
Full
Apr 22
Last Quarter
Apr 29
New
May 6
First Quarter
May 14
Full

Hourly Weather History & Observations

Time (CDT) Temp. Windchill Dew Point Humidity Pressure Visibility Wind Dir Wind Speed Gust Speed Precip Events Conditions
12:35 AM 42.8 °F 37.0 °F 42.8 °F 100% 29.88 in 7.0 mi NNW 10.4 mph - N/A   Overcast
1:15 AM 42.8 °F 37.5 °F 42.8 °F 100% 29.88 in 3.0 mi North 9.2 mph - N/A   Overcast
1:35 AM 42.8 °F 37.5 °F 41.0 °F 93% 29.89 in - NNW 9.2 mph - N/A   Unknown
1:55 AM 41.0 °F 36.4 °F 41.0 °F 100% 29.88 in 2.0 mi NNW 6.9 mph - N/A   Overcast
2:15 AM 41.0 °F 34.7 °F 39.2 °F 93% 29.89 in - NNW 10.4 mph - N/A   Overcast
2:35 AM 39.2 °F 32.5 °F 39.2 °F 100% 29.90 in 2.5 mi NNW 10.4 mph - N/A   Overcast
2:55 AM 39.2 °F 32.5 °F 39.2 °F 100% 29.90 in 3.0 mi NNW 10.4 mph - N/A   Overcast
3:15 AM 39.2 °F 30.8 °F 39.2 °F 100% 29.91 in 4.0 mi NNW 15.0 mph - N/A   Overcast
3:35 AM 37.4 °F 30.3 °F 37.4 °F 100% 29.93 in 5.0 mi NNW 10.4 mph - N/A   Overcast
3:55 AM 37.4 °F 32.1 °F 37.4 °F 100% 29.93 in 5.0 mi NNW 6.9 mph - N/A   Overcast
4:15 AM 37.4 °F 32.1 °F 37.4 °F 100% 29.94 in 5.0 mi NNW 6.9 mph - N/A   Overcast
4:35 AM 37.4 °F 30.8 °F 35.6 °F 93% 29.96 in 6.0 mi NNW 9.2 mph - N/A   Overcast
4:55 AM 35.6 °F 30.7 °F 35.6 °F 100% 29.96 in 9.0 mi NNW 5.8 mph - N/A   Overcast
5:15 AM 35.6 °F 28.0 °F 35.6 °F 100% 29.96 in 7.0 mi NNW 10.4 mph - N/A   Overcast
5:35 AM 35.6 °F 27.5 °F 35.6 °F 100% 29.98 in 9.0 mi North 11.5 mph - N/A   Overcast
5:55 AM 35.6 °F 29.9 °F 35.6 °F 100% 29.98 in 10.0 mi North 6.9 mph - N/A   Mostly Cloudy
6:15 AM 35.6 °F 30.7 °F 35.6 °F 100% 29.98 in 10.0 mi North 5.8 mph - N/A   Overcast
6:35 AM 35.6 °F 29.9 °F 35.6 °F 100% 30.00 in 9.0 mi North 6.9 mph - N/A   Overcast
6:55 AM 35.6 °F 30.7 °F 35.6 °F 100% 30.01 in 10.0 mi NNW 5.8 mph - N/A   Overcast
7:15 AM 35.6 °F 30.7 °F 35.6 °F 100% 30.02 in 10.0 mi NNW 5.8 mph - N/A   Overcast
7:35 AM 35.6 °F 29.2 °F 35.6 °F 100% 30.02 in 10.0 mi North 8.1 mph - N/A   Overcast
7:55 AM 35.6 °F 29.9 °F 35.6 °F 100% 30.03 in 10.0 mi NNW 6.9 mph - N/A   Overcast
8:15 AM 37.4 °F 32.1 °F 35.6 °F 93% 30.04 in 10.0 mi NNW 6.9 mph - N/A   Overcast
8:35 AM 37.4 °F 30.3 °F 35.6 °F 93% 30.05 in 10.0 mi NNW 10.4 mph - N/A   Overcast
8:55 AM 37.4 °F 29.8 °F 33.8 °F 87% 30.05 in 10.0 mi North 11.5 mph - N/A   Overcast
9:15 AM 37.4 °F 29.8 °F 33.8 °F 87% 30.06 in 10.0 mi NNW 11.5 mph - N/A   Overcast
9:35 AM 37.4 °F 30.3 °F 33.8 °F 87% 30.06 in 10.0 mi NNW 10.4 mph - N/A   Mostly Cloudy
9:55 AM 39.2 °F 32.5 °F 33.8 °F 81% 30.07 in 10.0 mi NNW 10.4 mph - N/A   Overcast
10:15 AM 39.2 °F 31.6 °F 30.2 °F 70% 30.08 in 10.0 mi NW 12.7 mph - N/A   Overcast
10:35 AM 41.0 °F 33.5 °F 33.8 °F 76% 30.08 in 10.0 mi North 13.8 mph - N/A   Mostly Cloudy
10:55 AM 41.0 °F 34.3 °F 32.0 °F 70% 30.09 in 10.0 mi NNW 11.5 mph - N/A   Overcast
11:15 AM 42.8 °F 36.2 °F 30.2 °F 61% 30.10 in 9.0 mi North 12.7 mph - N/A   Mostly Cloudy
11:55 AM 42.8 °F 36.6 °F 30.2 °F 61% 30.11 in 10.0 mi NNW 11.5 mph - N/A   Mostly Cloudy
12:15 PM 44.6 °F 37.8 °F 30.2 °F 57% 30.11 in 10.0 mi North 15.0 mph - N/A   Scattered Clouds
12:55 PM 44.6 °F 39.2 °F 30.2 °F 57% 30.11 in 10.0 mi North 10.4 mph - N/A   Mostly Cloudy
1:15 PM 46.4 °F 40.4 °F 32.0 °F 57% 30.11 in 10.0 mi North 13.8 mph - N/A   Scattered Clouds
1:35 PM 44.6 °F 38.8 °F 30.2 °F 57% 30.11 in 10.0 mi NNW 11.5 mph - N/A   Mostly Cloudy
1:55 PM 46.4 °F 41.5 °F 30.2 °F 53% 30.11 in 10.0 mi North 10.4 mph - N/A   Scattered Clouds
2:15 PM 46.4 °F 41.1 °F 28.4 °F 50% 30.12 in 10.0 mi NW 11.5 mph - N/A   Partly Cloudy
2:35 PM 46.4 °F 41.9 °F 30.2 °F 53% 30.12 in 10.0 mi North 9.2 mph - N/A   Clear
2:55 PM 46.4 °F 42.4 °F 30.2 °F 53% 30.12 in 10.0 mi North 8.1 mph - N/A   Partly Cloudy
3:15 PM 48.2 °F - 30.2 °F 50% 30.12 in 10.0 mi North 13.8 mph - N/A   Partly Cloudy
3:35 PM 48.2 °F - 30.2 °F 50% 30.12 in 10.0 mi NNW 10.4 mph - N/A   Partly Cloudy
3:55 PM 48.2 °F - 28.4 °F 46% 30.12 in 10.0 mi NNW 10.4 mph - N/A   Partly Cloudy
4:15 PM 48.2 °F - 30.2 °F 50% 30.13 in 10.0 mi NW 8.1 mph - N/A   Partly Cloudy
4:35 PM 48.2 °F - 30.2 °F 50% 30.13 in 10.0 mi North 12.7 mph - N/A   Clear
4:55 PM 48.2 °F - 28.4 °F 46% 30.13 in 10.0 mi North 9.2 mph - N/A   Clear
5:15 PM 48.2 °F - 28.4 °F 46% 30.14 in 10.0 mi North 10.4 mph - N/A   Clear
5:35 PM 46.4 °F 41.1 °F 28.4 °F 50% 30.15 in 10.0 mi North 11.5 mph - N/A   Clear
5:55 PM 46.4 °F 41.9 °F 28.4 °F 50% 30.14 in 10.0 mi North 9.2 mph - N/A   Clear
6:15 PM 46.4 °F 41.9 °F 26.6 °F 46% 30.15 in 10.0 mi North 9.2 mph - N/A   Clear
6:35 PM 46.4 °F 41.9 °F 28.4 °F 50% 30.15 in 10.0 mi North 9.2 mph - N/A   Clear
6:55 PM 44.6 °F 39.7 °F 26.6 °F 49% 30.14 in 10.0 mi North 9.2 mph - N/A   Clear
7:15 PM 44.6 °F 39.7 °F 26.6 °F 49% 30.14 in 10.0 mi North 9.2 mph - N/A   Clear
7:35 PM 42.8 °F 38.6 °F 26.6 °F 53% 30.15 in 10.0 mi North 6.9 mph - N/A   Clear
7:55 PM 42.8 °F 38.6 °F 26.6 °F 53% 30.16 in 10.0 mi North 6.9 mph - N/A   Clear
8:15 PM 41.0 °F 37.1 °F 26.6 °F 57% 30.16 in 10.0 mi North 5.8 mph - N/A   Clear
8:35 PM 39.2 °F 34.2 °F 26.6 °F 61% 30.16 in 10.0 mi North 6.9 mph - N/A   Clear
8:55 PM 39.2 °F 35.0 °F 26.6 °F 61% 30.17 in 10.0 mi North 5.8 mph - N/A   Clear
9:15 PM 39.2 °F 37.0 °F 26.6 °F 61% 30.18 in 10.0 mi NNE 3.5 mph - N/A   Clear
9:35 PM 39.2 °F 35.0 °F 26.6 °F 61% 30.20 in 10.0 mi North 5.8 mph - N/A   Clear
9:55 PM 37.4 °F 33.8 °F 26.6 °F 65% 30.21 in 10.0 mi North 4.6 mph - N/A   Clear
10:15 PM 37.4 °F 34.9 °F 26.6 °F 65% 30.21 in 10.0 mi NE 3.5 mph - N/A   Clear
10:35 PM 37.4 °F 34.9 °F 26.6 °F 65% 30.22 in 10.0 mi NE 3.5 mph - N/A   Clear
10:55 PM 37.4 °F - 26.6 °F 65% 30.22 in 10.0 mi Calm Calm - N/A   Clear
11:15 PM 35.6 °F - 28.4 °F 75% 30.23 in 10.0 mi Calm Calm - N/A   Clear
11:35 PM 33.8 °F - 28.4 °F 81% 30.24 in 10.0 mi Calm Calm - N/A   Clear
11:55 PM 33.8 °F - 28.4 °F 81% 30.25 in 10.0 mi Calm Calm - N/A   Clear